TimeCDT,TemperatureF,Dew PointF,Humidity,Sea Level PressureIn,VisibilityMPH,Wind Direction,Wind SpeedMPH,Gust SpeedMPH,PrecipitationIn,Events,Conditions,WindDirDegrees,DateUTC
12:15 AM,50.0,30.2,47,30.30,10.0,ENE,4.6,-,N/A,,Clear,70,2013-04-21 05:15:00
12:35 AM,50.0,30.2,47,30.30,10.0,ENE,3.5,-,N/A,,Clear,70,2013-04-21 05:35:00
12:55 AM,50.0,30.2,47,30.31,10.0,East,3.5,-,N/A,,Clear,80,2013-04-21 05:55:00
1:15 AM,48.2,30.2,50,30.31,10.0,East,3.5,-,N/A,,Clear,80,2013-04-21 06:15:00
1:35 AM,48.2,30.2,50,30.31,10.0,ENE,4.6,-,N/A,,Clear,60,2013-04-21 06:35:00
1:55 AM,46.4,30.2,53,30.32,10.0,ENE,5.8,-,N/A,,Clear,60,2013-04-21 06:55:00
2:15 AM,46.4,30.2,53,30.31,10.0,ENE,5.8,-,N/A,,Clear,60,2013-04-21 07:15:00
2:35 AM,46.4,30.2,53,30.32,10.0,ENE,5.8,-,N/A,,Clear,60,2013-04-21 07:35:00
2:55 AM,46.4,30.2,53,30.32,10.0,ENE,5.8,-,N/A,,Clear,70,2013-04-21 07:55:00
3:15 AM,46.4,30.2,53,30.31,10.0,East,5.8,-,N/A,,Clear,80,2013-04-21 08:15:00
3:35 AM,46.4,30.2,53,30.32,10.0,East,5.8,-,N/A,,Clear,80,2013-04-21 08:35:00
3:55 AM,46.4,30.2,53,30.32,10.0,East,6.9,-,N/A,,Clear,80,2013-04-21 08:55:00
4:15 AM,46.4,30.2,53,30.32,10.0,ENE,6.9,-,N/A,,Clear,70,2013-04-21 09:15:00
4:35 AM,46.4,30.2,53,30.32,10.0,ENE,5.8,-,N/A,,Clear,70,2013-04-21 09:35:00
4:55 AM,46.4,30.2,53,30.32,10.0,ENE,5.8,-,N/A,,Clear,70,2013-04-21 09:55:00
5:15 AM,44.6,30.2,57,30.33,10.0,ENE,6.9,-,N/A,,Clear,60,2013-04-21 10:15:00
5:35 AM,44.6,30.2,57,30.33,10.0,ENE,4.6,-,N/A,,Clear,60,2013-04-21 10:35:00
5:55 AM,44.6,28.4,53,30.34,10.0,ENE,5.8,-,N/A,,Clear,60,2013-04-21 10:55:00
6:15 AM,44.6,28.4,53,30.34,10.0,ENE,6.9,-,N/A,,Clear,70,2013-04-21 11:15:00
6:35 AM,44.6,28.4,53,30.35,10.0,ENE,5.8,-,N/A,,Clear,60,2013-04-21 11:35:00
6:55 AM,44.6,30.2,57,30.36,10.0,ENE,4.6,-,N/A,,Clear,70,2013-04-21 11:55:00
7:15 AM,44.6,30.2,57,30.37,10.0,ENE,6.9,-,N/A,,Clear,60,2013-04-21 12:15:00
7:35 AM,46.4,30.2,53,30.38,10.0,ENE,8.1,-,N/A,,Clear,60,2013-04-21 12:35:00
7:55 AM,48.2,30.2,50,30.38,10.0,ENE,8.1,-,N/A,,Clear,70,2013-04-21 12:55:00
8:15 AM,48.2,30.2,50,30.38,10.0,ENE,9.2,-,N/A,,Clear,70,2013-04-21 13:15:00
8:35 AM,51.8,32.0,47,30.38,10.0,ENE,6.9,-,N/A,,Clear,70,2013-04-21 13:35:00
8:55 AM,51.8,32.0,47,30.38,10.0,East,6.9,-,N/A,,Clear,100,2013-04-21 13:55:00
9:15 AM,55.4,33.8,44,30.38,10.0,ENE,9.2,-,N/A,,Clear,60,2013-04-21 14:15:00
9:35 AM,55.4,32.0,41,30.39,10.0,ESE,4.6,-,N/A,,Clear,110,2013-04-21 14:35:00
9:55 AM,57.2,33.8,41,30.39,10.0,ESE,8.1,-,N/A,,Clear,110,2013-04-21 14:55:00
10:15 AM,57.2,33.8,41,30.39,10.0,East,4.6,-,N/A,,Clear,100,2013-04-21 15:15:00
10:35 AM,59.0,33.8,39,30.39,10.0,ENE,6.9,-,N/A,,Clear,70,2013-04-21 15:35:00
10:55 AM,60.8,33.8,36,30.38,10.0,NE,8.1,-,N/A,,Clear,40,2013-04-21 15:55:00
11:15 AM,60.8,33.8,36,30.38,10.0,ENE,4.6,-,N/A,,Clear,60,2013-04-21 16:15:00
11:35 AM,60.8,33.8,36,30.37,10.0,ENE,10.4,-,N/A,,Clear,60,2013-04-21 16:35:00
11:55 AM,62.6,35.6,37,30.37,10.0,East,6.9,-,N/A,,Clear,90,2013-04-21 16:55:00
12:15 PM,62.6,35.6,37,30.36,10.0,NE,12.7,18.4,N/A,,Clear,40,2013-04-21 17:15:00
12:35 PM,62.6,35.6,37,30.35,10.0,East,9.2,19.6,N/A,,Clear,80,2013-04-21 17:35:00
12:55 PM,62.6,35.6,37,30.33,10.0,NNE,9.2,-,N/A,,Clear,30,2013-04-21 17:55:00
1:15 PM,64.4,35.6,34,30.33,10.0,ENE,9.2,-,N/A,,Clear,60,2013-04-21 18:15:00
1:35 PM,64.4,35.6,34,30.32,10.0,NNE,13.8,19.6,N/A,,Clear,30,2013-04-21 18:35:00
1:55 PM,64.4,35.6,34,30.31,10.0,NE,9.2,18.4,N/A,,Clear,50,2013-04-21 18:55:00
2:15 PM,64.4,33.8,32,30.30,10.0,NE,15.0,-,N/A,,Clear,40,2013-04-21 19:15:00
2:35 PM,64.4,33.8,32,30.29,10.0,NNE,11.5,18.4,N/A,,Clear,20,2013-04-21 19:35:00
2:55 PM,64.4,35.6,34,30.28,10.0,NE,9.2,18.4,N/A,,Clear,50,2013-04-21 19:55:00
3:15 PM,64.4,35.6,34,30.27,10.0,ENE,5.8,-,N/A,,Clear,60,2013-04-21 20:15:00
3:35 PM,64.4,33.8,32,30.26,10.0,East,11.5,-,N/A,,Clear,80,2013-04-21 20:35:00
3:55 PM,66.2,35.6,32,30.25,10.0,NE,9.2,-,N/A,,Clear,40,2013-04-21 20:55:00
4:15 PM,66.2,35.6,32,30.24,10.0,NNE,12.7,21.9,N/A,,Clear,30,2013-04-21 21:15:00
4:35 PM,64.4,33.8,32,30.24,10.0,NE,12.7,19.6,N/A,,Clear,40,2013-04-21 21:35:00
4:55 PM,66.2,33.8,30,30.24,10.0,ENE,11.5,-,N/A,,Clear,60,2013-04-21 21:55:00
5:15 PM,66.2,33.8,30,30.24,10.0,East,9.2,-,N/A,,Clear,80,2013-04-21 22:15:00
5:35 PM,64.4,33.8,32,30.24,10.0,NE,8.1,-,N/A,,Clear,40,2013-04-21 22:35:00
5:55 PM,64.4,33.8,32,30.25,10.0,ENE,9.2,-,N/A,,Clear,60,2013-04-21 22:55:00
6:15 PM,64.4,32.0,30,30.24,10.0,NE,9.2,-,N/A,,Clear,40,2013-04-21 23:15:00
6:35 PM,62.6,32.0,32,30.24,10.0,ENE,11.5,-,N/A,,Clear,60,2013-04-21 23:35:00
6:55 PM,62.6,33.8,34,30.23,10.0,NE,9.2,-,N/A,,Clear,50,2013-04-21 23:55:00
7:15 PM,62.6,33.8,34,30.24,10.0,NE,8.1,-,N/A,,Clear,50,2013-04-22 00:15:00
7:35 PM,60.8,33.8,36,30.24,10.0,NE,5.8,-,N/A,,Clear,50,2013-04-22 00:35:00
7:55 PM,59.0,32.0,36,30.24,10.0,NE,5.8,-,N/A,,Clear,40,2013-04-22 00:55:00
8:15 PM,57.2,32.0,38,30.24,10.0,NE,5.8,-,N/A,,Clear,50,2013-04-22 01:15:00
8:35 PM,57.2,32.0,38,30.24,10.0,ENE,4.6,-,N/A,,Clear,60,2013-04-22 01:35:00
8:55 PM,57.2,32.0,38,30.25,10.0,ENE,3.5,-,N/A,,Clear,60,2013-04-22 01:55:00
9:15 PM,57.2,33.8,41,30.25,10.0,ENE,4.6,-,N/A,,Clear,60,2013-04-22 02:15:00
9:35 PM,55.4,33.8,44,30.26,10.0,NE,4.6,-,N/A,,Clear,50,2013-04-22 02:35:00
9:55 PM,55.4,32.0,41,30.26,10.0,ENE,4.6,-,N/A,,Clear,60,2013-04-22 02:55:00
10:15 PM,55.4,32.0,41,30.26,10.0,ENE,5.8,-,N/A,,Clear,60,2013-04-22 03:15:00
10:35 PM,53.6,30.2,41,30.26,10.0,ENE,4.6,-,N/A,,Clear,60,2013-04-22 03:35:00
10:55 PM,53.6,30.2,41,30.25,10.0,ENE,4.6,-,N/A,,Clear,70,2013-04-22 03:55:00
11:15 PM,53.6,30.2,41,30.25,10.0,ENE,4.6,-,N/A,,Clear,60,2013-04-22 04:15:00
11:35 PM,53.6,30.2,41,30.25,10.0,NE,3.5,-,N/A,,Clear,50,2013-04-22 04:35:00
11:55 PM,51.8,30.2,44,30.26,10.0,NE,4.6,-,N/A,,Clear,40,2013-04-22 04:55:00